Wind_Speed
32 33 35 33 32 29 28 32 35 32 34 33 27 25 28 28 28 24 23 22 23 24 27 27 29 30 29 26 28 28 30 28
25 25 27 26 23 31 27 21 30 33 35 37 35 32 33 33 29 25 22 21 23 25 27 28 29 32 31 28 28 31 33 29
19 20 20 24 27 28 28 29 23 32 36 39 37 33 34 30 32 28 25 23 22 25 27 29 30 31 33 31 30 34 29 35
27 23 27 27 28 26 27 26 24 32 35 34 34 34 29 24 30 28 27 26 25 25 28 29 30 34 34 33 32 36 36 39
26 31 31 32 33 33 32 24 25 30 36 39 38 36 35 33 32 29 26 24 25 29 29 31 31 31 33 33 36 34 39 45
28 29 28 14 16 23 26 26 26 30 37 41 35 34 33 26 29 29 29 25 21 23 29 32 31 33 31 34 38 41 41 46
4 5 9 13 14 25 29 28 26 31 36 34 30 33 30 25 23 23 22 22 23 25 24 30 34 34 32 35 40 37 44 45
7 8 7 8 11 14 17 21 21 27 32 27 29 31 27 23 23 25 24 21 21 22 24 26 31 32 33 36 36 42 42 48
10 10 8 4 8 8 15 17 24 16 27 22 28 26 28 23 21 21 24 21 23 26 24 24 26 27 29 31 41 46 48 49
17 8 7 5 5 4 8 9 21 25 24 26 31 26 26 25 22 25 18 20 21 24 25 28 29 27 29 30 40 45 49 50
12 8 8 8 5 2 6 8 16 20 23 30 28 25 26 21 22 20 20 20 25 25 21 20 23 27 29 32 34 34 54 53
9 8 9 7 5 3 3 6 14 14 19 28 25 25 23 20 19 20 21 24 23 20 19 19 20 25 28 31 35 40 47 44
13 12 11 9 6 3 3 1 7 13 15 22 22 21 22 21 19 18 20 20 17 17 16 17 19 22 24 25 33 42 44 46
16 14 15 13 10 7 3 1 5 10 14 13 23 20 18 19 17 18 20 18 16 14 12 13 14 15 16 19 27 35 38 42
14 14 15 14 13 10 7 1 4 7 9 10 18 19 19 15 15 19 21 18 16 13 11 11 12 14 14 15 23 26 32 35
15 14 14 14 15 14 12 9 4 3 7 9 11 11 14 14 16 15 14 14 14 12 10 11 11 18 17 16 16 19 25 30
13 15 15 12 10 12 12 14 12 6 3 9 12 13 11 13 16 17 15 12 10 11 11 11 13 17 20 21 22 20 23 24
13 14 14 13 12 11 9 11 10 11 10 4 6 13 13 14 15 14 14 12 10 12 12 12 12 18 20 22 27 21 25 26
13 13 13 13 11 11 13 9 7 8 10 13 11 7 14 18 18 13 15 13 12 11 11 11 13 14 20 23 26 26 26 26
Wind_Direction
237 236 235 231 228 230 221 215 220 224 219 230 232 221 223 225 231 223 218 224 229 226 221 218 218 218 216 214 212 202 199 191
226 226 223 225 223 224 213 201 214 217 216 217 220 213 227 214 224 226 225 223 224 221 220 215 214 216 220 219 208 205 201 206
236 219 220 225 226 230 215 216 217 222 225 218 215 212 223 220 223 222 228 226 222 220 217 214 210 212 218 217 207 202 205 188
237 244 243 234 229 229 216 218 216 224 218 205 213 210 218 229 223 226 225 219 223 219 213 214 212 214 216 220 214 207 196 191
224 226 233 234 233 225 226 232 215 218 213 213 211 214 212 218 212 217 226 228 222 218 216 217 217 215 218 224 222 215 205 190
236 232 235 219 221 226 226 231 212 214 221 226 217 212 215 214 218 232 229 228 230 223 220 217 221 221 219 218 224 226 211 198
162 227 231 230 240 232 208 208 208 219 227 225 223 205 215 222 215 220 224 220 222 229 221 219 220 225 224 220 224 217 207 212
156 206 195 217 190 170 189 199 199 225 228 228 206 207 209 203 216 205 222 220 222 226 223 220 222 224 228 223 235 229 221 213
101 77 83 101 112 203 243 241 199 211 219 218 199 210 212 210 214 214 221 223 222 228 232 231 220 228 228 229 232 226 220 214
112 103 96 124 139 191 267 256 203 210 215 210 204 209 208 213 213 209 215 220 231 233 230 232 234 239 234 243 224 222 231 223
95 101 92 79 52 289 267 233 222 226 219 208 203 206 207 214 221 220 221 227 225 237 238 234 232 237 237 236 239 232 216 215
120 91 74 69 74 81 323 247 220 225 220 211 211 213 214 212 218 220 219 224 237 236 238 231 237 241 237 235 237 235 228 225
109 90 75 78 62 47 28 268 243 228 219 208 210 209 215 218 218 220 231 242 226 236 226 236 243 236 228 225 232 226 219 202
103 83 72 67 61 63 36 293 229 213 222 215 199 199 203 212 221 225 232 235 228 223 223 238 229 211 211 213 225 229 226 212
91 82 74 63 65 59 51 21 251 230 216 214 217 213 215 213 224 233 242 233 224 220 222 222 220 204 199 212 224 220 224 206
105 91 80 67 62 63 60 50 34 246 227 218 219 230 215 222 220 232 243 243 221 217 218 215 203 194 196 191 189 202 215 209
98 91 79 66 53 51 53 57 53 19 269 214 218 218 212 219 216 223 239 237 232 215 213 219 211 210 203 192 183 179 180 185
77 75 70 62 43 20 33 41 48 51 29 330 223 231 203 214 220 227 226 230 225 227 226 218 218 220 214 210 202 203 203 202
55 55 59 56 48 46 4 5 24 37 45 21 1 270 210 225 222 218 226 227 229 223 223 224 223 226 220 219 214 208 207 211
Height
1410 1414 1418 1421 1424 1429 1429 1431 1434 1438 1443 1447 1451 1455 1458 1460 1459 1464 1467 1471 1474 1477 1482 1487 1490 1494 1499 1502 1507 1512 1516 1520
1403 1407 1410 1414 1418 1422 1424 1425 1430 1434 1437 1440 1445 1448 1450 1456 1456 1458 1461 1465 1469 1472 1476 1481 1486 1489 1493 1498 1503 1508 1513 1519
1398 1401 1406 1410 1414 1416 1418 1422 1425 1428 1431 1435 1440 1445 1445 1449 1453 1454 1456 1460 1462 1467 1470 1475 1480 1484 1488 1493 1497 1503 1509 1513
1394 1397 1401 1405 1407 1409 1412 1416 1422 1425 1427 1431 1435 1440 1442 1445 1447 1449 1450 1455 1457 1460 1464 1469 1473 1478 1482 1487 1492 1497 1501 1508
1386 1391 1396 1398 1401 1403 1406 1410 1417 1421 1422 1423 1427 1432 1435 1437 1440 1444 1446 1449 1451 1455 1458 1463 1467 1472 1476 1480 1486 1490 1496 1501
1379 1384 1389 1392 1395 1397 1401 1405 1411 1413 1415 1418 1424 1429 1432 1434 1438 1440 1443 1444 1446 1449 1452 1457 1461 1466 1471 1476 1480 1484 1489 1495
1374 1379 1384 1388 1390 1392 1396 1400 1406 1406 1410 1414 1419 1424 1428 1431 1434 1435 1437 1441 1443 1445 1448 1451 1455 1459 1464 1469 1474 1476 1480 1488
1377 1382 1384 1388 1388 1391 1394 1397 1403 1403 1406 1410 1415 1421 1426 1429 1430 1433 1433 1437 1438 1440 1443 1445 1449 1453 1458 1463 1467 1469 1475 1479
1379 1383 1384 1388 1391 1391 1392 1395 1398 1402 1403 1407 1413 1418 1423 1426 1428 1430 1431 1433 1435 1437 1439 1441 1444 1448 1452 1456 1459 1461 1467 1472
1381 1388 1389 1389 1389 1391 1390 1391 1393 1396 1401 1405 1409 1414 1418 1421 1425 1427 1429 1430 1430 1433 1435 1436 1439 1442 1445 1449 1450 1455 1459 1463
1383 1388 1387 1387 1389 1389 1390 1390 1392 1395 1398 1402 1405 1409 1414 1417 1421 1424 1426 1427 1426 1427 1429 1431 1433 1435 1438 1441 1444 1446 1449 1455
1387 1387 1386 1386 1387 1388 1389 1388 1390 1392 1395 1399 1402 1406 1410 1415 1417 1420 1422 1422 1423 1424 1425 1426 1427 1429 1431 1433 1435 1438 1444 1448
1384 1386 1385 1386 1387 1388 1387 1387 1389 1392 1394 1396 1399 1404 1407 1411 1413 1417 1418 1419 1419 1420 1420 1420 1421 1422 1423 1426 1429 1432 1437 1442
1384 1385 1385 1385 1387 1388 1387 1387 1388 1390 1392 1395 1397 1400 1403 1407 1411 1413 1414 1415 1416 1416 1416 1416 1417 1417 1419 1421 1424 1429 1434 1439
1386 1386 1386 1387 1389 1390 1389 1388 1389 1389 1391 1393 1396 1398 1401 1404 1408 1410 1412 1412 1413 1413 1413 1413 1414 1416 1418 1421 1424 1427 1432 1436
1385 1388 1389 1390 1391 1392 1392 1389 1389 1389 1391 1393 1395 1396 1398 1402 1406 1407 1408 1410 1410 1411 1411 1411 1413 1415 1417 1420 1424 1426 1430 1436
1391 1388 1390 1393 1394 1394 1393 1390 1388 1389 1390 1392 1394 1395 1398 1401 1404 1405 1406 1408 1408 1408 1409 1411 1413 1414 1417 1420 1424 1427 1431 1434
1394 1392 1393 1395 1396 1394 1392 1391 1390 1390 1391 1391 1391 1392 1394 1396 1401 1402 1404 1405 1407 1408 1409 1410 1412 1414 1417 1421 1424 1428 1431 1435
1399 1399 1398 1398 1397 1395 1393 1393 1392 1391 1390 1390 1389 1390 1391 1395 1397 1398 1401 1402 1404 1406 1407 1409 1411 1413 1415 1418 1422 1426 1430 1434